Location: Newark
(49.8753°N, 23.0797°E)
Time: 03:21:07
(UTC+00:00)

X-37B - Pass Details

Date: 26 June 2021
Orbit: 383 x 392 km, 45.0° (Epoch: 01 July)

Event Time Altitude Azimuth Distance (km) Brightness Sun altitude
Rises 20:50:14 0° 258° (WSW) 2,256 4.6 -13.5°
Reaches altitude 10° 20:52:24 10° 248° (WSW) 1,402 3.4 -13.6°
Maximum altitude 20:55:18 33° 182° (S) 663 1.3 -13.8°
Enters shadow 20:55:54 30° 157° (SSE) 712 1.3 -13.8°
